This is the latest recevied weather packets stored in our database for station/object KC8BSD. If no packets are shown the sender has not sent any weather packets the latest 10 day(s).
| Time | Temp. | Humidity | Pressure | Rain* | Wind** | Luminosity | Snow |
|---|---|---|---|---|---|---|---|
| 1778013546 | 12.78° C | 61% | 1009.4 hPa | 0 mm | - | 81 W/m² | - |
| 1778013243 | 12.78° C | 60% | 1009.3 hPa | 0 mm | - | 105 W/m² | - |
| 1778012939 | 12.78° C | 60% | 1009.3 hPa | 0 mm | - | 132 W/m² | - |
| 1778012635 | 12.78° C | 61% | 1008.9 hPa | 0 mm | - | 135 W/m² | - |
| 1778012332 | 12.78° C | 62% | 1009 hPa | 0 mm | - | 127 W/m² | - |
| 1778012029 | 12.78° C | 61% | 1008.7 hPa | 0 mm | - | 111 W/m² | - |
| 1778011728 | 12.78° C | 62% | 1008.7 hPa | 0 mm | - | 104 W/m² | - |
| 1778011424 | 12.78° C | 64% | 1008.8 hPa | 0 mm | - | 100 W/m² | - |
| 1778011120 | 12.78° C | 61% | 1008.9 hPa | 0 mm | - | 121 W/m² | - |
| 1778010817 | 12.78° C | 60% | 1008.9 hPa | 0 mm | - | 140 W/m² | - |
| 1778010514 | 13.33° C | 59% | 1008.9 hPa | 0 mm | - | 163 W/m² | - |
| 1778010212 | 13.33° C | 59% | 1009.2 hPa | 0 mm | - | 176 W/m² | - |
| 1778009907 | 13.33° C | 60% | 1009 hPa | 0 mm | - | 192 W/m² | - |
| 1778009605 | 13.33° C | 59% | 1008.9 hPa | 0 mm | - | 193 W/m² | - |
| 1778009302 | 13.33° C | 59% | 1009.2 hPa | 0 mm | - | 169 W/m² | - |
| 1778009001 | 13.33° C | 61% | 1009.2 hPa | 0 mm | - | 196 W/m² | - |
| 1778008698 | 12.78° C | 60% | 1009.3 hPa | 0 mm | - | 230 W/m² | - |
| 1778008396 | 12.78° C | 60% | 1009 hPa | 0 mm | - | 195 W/m² | - |
| 1778008092 | 12.78° C | 59% | 1009.3 hPa | 0 mm | - | 153 W/m² | - |
| 1778007788 | 13.33° C | 59% | 1008.8 hPa | 0 mm | - | 124 W/m² | - |
| 1778007484 | 13.33° C | 60% | 1008.9 hPa | 0 mm | - | 123 W/m² | - |
| 1778007181 | 13.33° C | 61% | 1009.4 hPa | 0 mm | - | 123 W/m² | - |
| 1778006876 | 13.33° C | 59% | 1009 hPa | 0 mm | - | 161 W/m² | - |
| 1778006574 | 13.33° C | 61% | 1009.3 hPa | 0 mm | - | 159 W/m² | - |
| 1778006270 | 13.33° C | 61% | 1009.2 hPa | 0 mm | - | 126 W/m² | - |
* Rain latest hour (hover to see other rain measurements)
** Current wind speed in m/s (hover to see current wind gust speed)